Regional Weather Roundup
Issued by NWS

Home | Current Version | Previous Version | Graphics & Text | Print | Product List | Glossary On
Versions: 1 2 3 4 5 6 7 8 9 10 11 12 13 14 15 16 17 18 19 20 21 22 23 24 25 26 27 28 29 30 31 32 33 34 35 36 37 38 39 40 41 42 43 44 45 46 47 48 49 50
000
ASUS45 KABQ 122110
RWRNM
NEW MEXICO REGIONAL WEATHER ROUNDUP
NATIONAL WEATHER SERVICE ALBUQUERQUE NM
200 PM MST FRI FEB 12 2016

NOTE: "FAIR" MEANS FEW OR NO CLOUDS BELOW 12,000 FEET AGL WITH NO
       SIGNIFICANT WEATHER OR OBSTRUCTIONS TO VISION.

      THIS PRODUCT IS RELEASED AS TWO VERSIONS.  ONE VERSION NEAR
      THE TOP OF THE HOUR CONTAINING PRELIMINARY DATA FROM ALBUQUERQUE
      AND OTHER STATIONS.  A FINAL VERSION WITH ADDITIONAL DATA IS
      ISSUED ABOUT 10 MINUTES AFTER THE HOUR.

NMZ501-503-504-510>518-122200-
NORTHWEST PLATEAU/NORTHCENTRAL MOUNTAINS

CITY           SKY/WX    TMP DP  RH WIND       PRES   REMARKS
FARMINGTON     SUNNY     58  22  24 CALM      30.34F
LOS ALAMOS     SUNNY     57  17  21 CALM      30.37F
SANTA FE       SUNNY     64  15  15 N10       30.32F
TAOS           SUNNY     54  23  30 NW5       30.37F
ANGEL FIRE     FAIR      46  27  49 CALM      30.39F

$$
NMZ402-403-502-505>509-122200-
WESTCENTRAL MOUNTAINS/SOUTHWEST MOUNTAINS

CITY           SKY/WX    TMP DP  RH WIND       PRES   REMARKS
GALLUP         SUNNY     63   7  11 NW3       30.35F
GRANTS         SUNNY     67   8   9 W6        30.35F
SILVER CITY      N/A     68  10  10 S7        30.31F

$$
NMZ407-409-411-412-122200-
SOUTHERN DESERTS

CITY           SKY/WX    TMP DP  RH WIND       PRES   REMARKS
LORDSBURG      FAIR      73  16  11 SE9       30.24F
DEMING         SUNNY     73  12   9 VRB3      30.25F
LAS CRUCES     SUNNY     70  12  10 W3        30.27F
HOLLOMAN AFB   SUNNY     72   8   8 S5        30.23F
ALAMOGORDO     SUNNY     72  14  11 SE5       30.25F
T OR C         SUNNY     69   9   9 VRB3      30.27F

$$
NMZ519>523-122200-
CENTRAL VALLEYS/CENTRAL HIGHLANDS

CITY           SKY/WX    TMP DP  RH WIND       PRES   REMARKS
ALBUQUERQUE    SUNNY     64  19  17 CALM      30.31F
DOUBLE EAGLE   SUNNY     66  21  18 VRB6      30.33F
MORIARTY ARPT  FAIR      65  12  13 NW3       30.33F
CLINES CORNERS SUNNY     63  14  15 N6        30.33F
BELEN          FAIR      65  12  12 CALM      30.30F
SOCORRO        FAIR      67  13  12 N10       30.28F

$$
NMZ524>526-539-540-122200-
SOUTHCENTRAL MOUNTAINS

CITY           SKY/WX    TMP DP  RH WIND       PRES   REMARKS
RUIDOSO        SUNNY     64  10  12 SE12      30.35F

$$
NMZ527>531-122200-
NORTHEAST HIGHLANDS/NORTHEAST PLAINS

CITY           SKY/WX    TMP DP  RH WIND       PRES   REMARKS
LAS VEGAS      SUNNY     59  20  22 S10       30.34F
RATON          SUNNY     58  18  21 SW9       30.31F
CLAYTON        SUNNY     62  24  23 S16       30.29F

$$
NMZ532>537-122200-
EASTCENTRAL PLAINS

CITY           SKY/WX    TMP DP  RH WIND       PRES   REMARKS
TUCUMCARI      SUNNY     66  23  19 E5        30.27F
CANNON AFB     SUNNY     67  25  20 SE12G23   30.26F
CLOVIS AIRPORT SUNNY     66  27  22 SE13G22   30.28F

$$
NMZ028-029-538-122200-
SOUTHEAST PLAINS

CITY           SKY/WX    TMP DP  RH WIND       PRES   REMARKS
ROSWELL        SUNNY     69  22  16 MISG      30.24F
ARTESIA        SUNNY     66  27  22 NE8       30.25F
CARLSBAD       SUNNY     69  25  19 N9        30.23F
HOBBS          SUNNY     72  19  14 SE12      30.25F


$$




USA.gov is the U.S. government's official web portal to all federal, state and local government web resources and services.